カタログに戻る

STARLINK-37447

運用中通信SSO
NORAD 68810·PAYLOAD·🇺🇸 United States

打ち上げ Apr 23, 2026 から Vandenberg Space Force Base

Loading…

次のパス (今後24時間)

TLE

最新Source: CelesTrak SupGP

元期: Sep 15, 2026, 04:22 UTC

1 68810C 26089J   26258.18243056 -.00047250  00000+0 -14663-2 0  2589
2 68810  97.2853 103.9926 0001970  92.6631 213.2596 15.33471784    15

AllMySatでSTARLINK-37447をリアルタイム追跡

Download on the App Store